Home > Weather > Esbjerg > Past weeks

Flag for Denmark Past Weather in Esbjerg, Denmark — Yesterday and Last 2 Weeks

Now
59 °F

Passing clouds.


Feels Like: 59 °F
Forecast: 56 / 63 °F
Wind: 5 mph from Northwest

Location: Esbjerg Airport

Current Time: Jun 25, 2016 at 1:52:49 AM

Latest Report: Jun 25, 2016 at 1:20 AM


Visibility: N/A

Pressure: 30.04 "Hg

Humidity: 94%

Dew Point: 57 °F

Location of EsbjergLocation

Past Weather in Esbjerg — Graph

°F

Esbjerg Temperature Yesterday

Maximum temperature yesterday: 73 °F (at 11:50 AM)
Minimum temperature yesterday: 59 °F (at 12:20 AM)
Average temperature yesterday: 65 °F

High & Low Weather Summary for the Past Weeks

 TemperatureHumidityPressure
High73 °F (Jun 23, 1:20 PM)100% (Jun 15, 6:20 AM)30.18 "Hg (Jun 15, 6:20 AM)
Low43 °F (Jun 11, 4:50 AM)34% (Jun 12, 11:50 AM)29.45 "Hg (Jun 14, 5:50 PM)
Average59 °F78%29.84 "Hg
* Reported Jun 10 12:20 AM — Jun 25 12:20 AM, Esbjerg, Weather by CustomWeather, © 2016

Note: Actual official high and low records may vary slightly from our data, if they occured in-between our weather recording intervals... More about our weather records

Advertising

Esbjerg Weather History for the Previous 24 Hours

Scroll right to see more
 ConditionsComfort  
Time TempWeatherWind HumidityBarometerVisibility
12:20 AM
Sat, Jun 25
61 °FOvercast.3 mph88%30.04 "HgN/A
11:50 PM
Fri, Jun 24
61 °FLow clouds.5 mph94%30.04 "HgN/A
11:20 PM61 °FLow clouds.2 mph94%30.07 "HgN/A
10:50 PM61 °FLow clouds.8 mph94%30.04 "HgN/A
10:20 PM61 °FLow clouds.7 mph94%30.04 "HgN/A
9:50 PM63 °FLow clouds.7 mph88%30.04 "HgN/A
9:20 PM63 °FLow clouds.8 mph88%30.04 "HgN/A
8:50 PM63 °FLow clouds.6 mph94%30.04 "HgN/A
8:20 PM63 °FLow clouds.5 mph94%30.04 "HgN/A
7:50 PM63 °FLow clouds.7 mph94%30.04 "HgN/A
7:20 PM63 °FLow clouds.7 mph94%30.04 "Hg3 mi
6:50 PM63 °FLow clouds.9 mph94%30.01 "Hg3 mi
6:20 PM63 °FLow clouds.7 mph94%30.04 "HgN/A
5:50 PM63 °FLight rain. Low clouds.6 mph94%30.01 "HgN/A
5:20 PM63 °FLow clouds.12 mph94%30.04 "Hg4 mi
4:50 PM63 °FPartly sunny.12 mph94%30.04 "Hg4 mi
4:20 PM64 °FPartly sunny.9 mph88%30.01 "Hg4 mi
3:50 PM64 °FPartly sunny.9 mph88%30.01 "Hg4 mi
3:20 PM66 °FPartly sunny.9 mph88%30.01 "Hg4 mi
2:50 PM66 °FFog.9 mph88%30.01 "Hg2 mi
2:20 PM68 °FFog.14 mph83%30.01 "Hg2 mi
1:50 PM68 °FFog.13 mph88%30.01 "Hg2 mi
1:20 PM72 °FPassing clouds.9 mph83%29.98 "HgN/A
12:50 PM72 °FPassing clouds.9 mph83%29.98 "HgN/A
12:20 PM72 °FMild.7 mph78%29.98 "HgN/A
11:50 AM73 °FMild.7 mph74%29.98 "HgN/A
11:20 AM72 °FPassing clouds.6 mph83%29.98 "HgN/A
10:50 AM70 °FPassing clouds.8 mph83%29.95 "HgN/A
10:20 AM70 °FPassing clouds.9 mph88%29.95 "HgN/A
9:50 AM70 °FPassing clouds.12 mph88%29.95 "HgN/A
9:20 AM68 °FBroken clouds.8 mph88%29.95 "HgN/A
8:50 AM68 °FPassing clouds.8 mph88%29.95 "HgN/A
8:20 AM68 °FPassing clouds.8 mph94%29.92 "HgN/A
7:50 AM66 °FFog.7 mph100%29.92 "Hg2 mi
7:20 AM66 °FFog.6 mph100%29.92 "Hg1 mi
6:50 AM64 °FFog.5 mph100%29.92 "Hg1 mi
6:20 AM64 °FFog.5 mph94%29.92 "Hg1 mi
5:50 AM64 °FFog.2 mph94%29.92 "Hg1 mi
5:20 AM63 °FFog.2 mph100%29.95 "Hg0 mi
4:50 AM63 °FFog.2 mph100%29.95 "Hg0 mi
4:20 AM61 °FPassing clouds.1 mph100%29.98 "Hg0 mi
3:50 AM61 °FFog.1 mph100%29.98 "Hg0 mi
3:20 AM61 °FFog.No wind100%29.98 "Hg0 mi
2:50 AM61 °FFog.2 mph100%29.98 "Hg0 mi
2:20 AM61 °FFog.1 mph100%30.01 "Hg0 mi
1:50 AM63 °FFog.1 mph94%30.01 "Hg0 mi
1:20 AM61 °FFog.2 mph100%30.01 "Hg0 mi
Weather by CustomWeather, © 2016

See weather overviewHow to use our weather pages